| time (UTC) | temp F | wind direction | speed knots | gust knots | rain 1hr in | rain 24hr in | rain mn in | humidity % | barometer mb |
| 20260506134003 | 66 | 270 | 0.9 | 0.9 | 0.00 | 0.04 | 0.00 | 64 | 1008.7 |
| 20260506132503 | 67 | 270 | 0.0 | 0.0 | 0.00 | 0.04 | 0.00 | 63 | 1008.6 |
| 20260506131003 | 65 | 270 | 0.9 | 0.9 | 0.00 | 0.07 | 0.00 | 65 | 1008.7 |
| 20260506125503 | 63 | 270 | 0.9 | 0.9 | 0.00 | 0.07 | 0.00 | 69 | 1008.8 |
| 20260506124003 | 64 | 270 | 0.0 | 0.0 | 0.00 | 0.17 | 0.00 | 67 | 1008.9 |
| 20260506122502 | 64 | 270 | 0.0 | 0.0 | 0.00 | 0.20 | 0.00 | 68 | 1009.0 |
| 20260506121002 | 64 | 270 | 0.9 | 0.9 | 0.00 | 0.20 | 0.00 | 71 | 1008.9 |
| 20260506115502 | 63 | 270 | 2.6 | 2.6 | 0.00 | 0.20 | 0.00 | 68 | 1009.0 |
| 20260506114002 | 64 | 292 | 0.0 | 0.0 | 0.00 | 0.20 | 0.00 | 67 | 1009.0 |
| 20260506112502 | 66 | 315 | 0.9 | 0.9 | 0.00 | 0.20 | 0.00 | 64 | 1009.0 |
| 20260506111003 | 65 | 292 | 0.0 | 0.0 | 0.00 | 0.20 | 0.00 | 63 | 1009.3 |
| 20260506105503 | 64 | 292 | 0.0 | 0.0 | 0.00 | 0.20 | 0.00 | 61 | 1009.5 |
| 20260506104003 | 64 | 292 | 1.7 | 1.7 | 0.00 | 0.20 | 0.00 | 63 | 1009.7 |
| 20260506102503 | 64 | 248 | 0.0 | 0.0 | 0.00 | 0.20 | 0.00 | 62 | 1009.9 |
| 20260506101003 | 64 | 292 | 0.0 | 0.0 | 0.00 | 0.20 | 0.00 | 61 | 1009.8 |
| 20260506095502 | 64 | 292 | 2.6 | 2.6 | 0.00 | 0.20 | 0.00 | 63 | 1009.8 |
| 20260506094003 | 65 | 270 | 0.0 | 0.0 | 0.00 | 0.20 | 0.00 | 65 | 1009.9 |
| 20260506092503 | 64 | 270 | 0.9 | 0.9 | 0.00 | 0.20 | 0.00 | 64 | 1009.7 |
| 20260506091003 | 64 | 270 | 4.3 | 4.3 | 0.00 | 0.20 | 0.00 | 64 | 1009.7 |
| 20260506085503 | 65 | 68 | 0.0 | 0.0 | 0.00 | 0.20 | 0.00 | 66 | 1009.8 |
| 20260506084003 | 62 | 292 | 1.7 | 1.7 | 0.00 | 0.20 | 0.00 | 66 | 1009.8 |
| 20260506082502 | 62 | 22 | 0.0 | 0.0 | 0.00 | 0.20 | 0.00 | 70 | 1009.9 |
| 20260506081002 | 60 | 22 | 0.0 | 0.0 | 0.00 | 0.20 | 0.00 | 77 | 1009.9 |
| 20260506072502 | 59 | 68 | 0.0 | 0.0 | 0.00 | 0.20 | 0.00 | 77 | 1010.0 |
| 20260506071002 | 58 | 90 | 1.7 | 1.7 | 0.00 | 0.20 | 0.00 | 76 | 1010.0 |
| 20260506062502 | 52 | 68 | 1.7 | 1.7 | 0.00 | 0.20 | 0.00 | 89 | 1009.9 |
| 20260506061003 | 52 | 68 | 1.7 | 1.7 | 0.00 | 0.20 | 0.00 | 89 | 1010.0 |
| 20260506051003 | 50 | 158 | 4.3 | 4.3 | 0.00 | 0.20 | 0.00 | 90 | 1010.2 |
| 20260506044003 | 49 | 90 | 0.0 | 0.0 | 0.00 | 0.20 | 0.00 | 92 | 1010.3 |
| 20260506042503 | 49 | 68 | 1.7 | 1.7 | 0.00 | 0.20 | 0.00 | 93 | 1010.4 |
| 20260506041003 | 50 | 68 | 0.9 | 0.9 | 0.00 | 0.20 | 0.00 | 92 | 1010.5 |
| 20260506035503 | 49 | 68 | 0.9 | 0.9 | 0.00 | 0.20 | 0.00 | 92 | 1010.6 |
| 20260506034003 | 49 | 112 | 0.9 | 0.9 | 0.00 | 0.20 | 0.00 | 93 | 1010.8 |
| 20260506032503 | 49 | 90 | 0.0 | 0.0 | 0.00 | 0.20 | 0.00 | 93 | 1010.8 |
| 20260506031002 | 49 | 68 | 2.6 | 2.6 | 0.00 | 0.20 | 0.00 | 94 | 1010.8 |
| 20260506025502 | 49 | 68 | 0.0 | 0.0 | 0.00 | 0.20 | 0.00 | 94 | 1010.8 |
| 20260506024002 | 49 | 68 | 2.6 | 2.6 | 0.00 | 0.20 | 0.00 | 95 | 1010.8 |
| 20260506022502 | 48 | 90 | 0.0 | 0.0 | 0.00 | 0.20 | 0.00 | 95 | 1010.7 |
| 20260506021002 | 49 | 90 | 0.0 | 0.0 | 0.00 | 0.20 | 0.00 | 95 | 1011.0 |
| 20260506015502 | 49 | 90 | 0.0 | 0.0 | 0.00 | 0.20 | 0.00 | 95 | 1011.1 |
| 20260506014002 | 49 | 68 | 0.0 | 0.0 | 0.00 | 0.20 | 0.00 | 95 | 1011.3 |
| 20260506012502 | 49 | 68 | 1.7 | 1.7 | 0.00 | 0.20 | 0.00 | 96 | 1011.2 |
| 20260506011003 | 49 | 68 | 0.9 | 0.9 | 0.00 | 0.20 | 0.00 | 95 | 1011.0 |
| 20260506005503 | 49 | 68 | 0.9 | 0.9 | 0.00 | 0.20 | 0.00 | 95 | 1011.0 |
| 20260506004003 | 49 | 68 | 0.0 | 0.0 | 0.00 | 0.20 | 0.00 | 95 | 1011.1 |
| 20260506002503 | 50 | 68 | 0.0 | 0.0 | 0.00 | 0.20 | 0.00 | 95 | 1011.5 |
| 20260506001003 | 50 | 68 | 2.6 | 2.6 | 0.00 | 0.20 | 0.00 | 95 | 1011.6 |
| 20260505235502 | 51 | 68 | 2.6 | 2.6 | 0.00 | 0.20 | 0.00 | 95 | 1011.7 |
| 20260505234002 | 51 | 68 | 2.6 | 3.5 | 0.00 | 0.20 | 0.00 | 94 | 1011.7 |
| 20260505232502 | 51 | 112 | 0.9 | 0.9 | 0.00 | 0.20 | 0.00 | 94 | 1011.9 |
| 20260505231003 | 51 | 68 | 0.9 | 0.9 | 0.00 | 0.20 | 0.00 | 94 | 1011.9 |
| 20260505225502 | 52 | 90 | 0.9 | 0.9 | 0.00 | 0.20 | 0.00 | 94 | 1011.7 |
| 20260505224002 | 52 | 90 | 1.7 | 1.7 | 0.00 | 0.20 | 0.00 | 94 | 1011.8 |
| 20260505222503 | 53 | 112 | 3.5 | 3.5 | 0.00 | 0.20 | 0.00 | 93 | 1011.7 |
| 20260505221003 | 53 | 112 | 1.7 | 1.7 | 0.00 | 0.20 | 0.00 | 92 | 1011.7 |
| 20260505215503 | 54 | 90 | 0.0 | 0.0 | 0.00 | 0.20 | 0.20 | 92 | 1011.7 |
| 20260505214002 | 55 | 90 | 2.6 | 2.6 | 0.00 | 0.20 | 0.20 | 90 | 1011.8 |
| 20260505212502 | 55 | 90 | 0.0 | 0.0 | 0.00 | 0.20 | 0.20 | 89 | 1011.8 |
| 20260505211003 | 55 | 90 | 1.7 | 1.7 | 0.00 | 0.20 | 0.20 | 90 | 1011.9 |
| 20260505205503 | 55 | 90 | 0.9 | 0.9 | 0.00 | 0.20 | 0.20 | 92 | 1011.8 |
| 20260505204002 | 55 | 68 | 1.7 | 1.7 | 0.00 | 0.20 | 0.20 | 93 | 1011.8 |
| 20260505202503 | 56 | 112 | 1.7 | 1.7 | 0.00 | 0.20 | 0.20 | 92 | 1011.4 |
| 20260505201002 | 56 | 90 | 2.6 | 2.6 | 0.00 | 0.20 | 0.20 | 94 | 1011.4 |
| 20260505195503 | 56 | 90 | 1.7 | 1.7 | 0.00 | 0.20 | 0.20 | 94 | 1011.2 |
| 20260505194003 | 56 | 90 | 0.9 | 0.9 | 0.00 | 0.20 | 0.20 | 94 | 1011.1 |
| 20260505192503 | 56 | 112 | 1.7 | 1.7 | 0.00 | 0.20 | 0.20 | 94 | 1011.1 |
| 20260505191002 | 56 | 90 | 0.0 | 0.0 | 0.03 | 0.20 | 0.20 | 94 | 1010.9 |
| 20260505185503 | 57 | 90 | 0.0 | 0.0 | 0.03 | 0.20 | 0.20 | 93 | 1010.9 |
| 20260505184003 | 57 | 292 | 0.0 | 0.0 | 0.03 | 0.20 | 0.20 | 93 | 1011.1 |
| 20260505182503 | 57 | 292 | 0.0 | 0.0 | 0.03 | 0.20 | 0.20 | 91 | 1011.0 |
| 20260505181003 | 58 | 292 | 0.0 | 0.0 | 0.00 | 0.17 | 0.17 | 89 | 1011.0 |
| 20260505175502 | 59 | 292 | 0.9 | 0.9 | 0.00 | 0.17 | 0.17 | 86 | 1010.9 |
| 20260505174003 | 59 | 292 | 0.0 | 0.0 | 0.00 | 0.17 | 0.17 | 86 | 1010.7 |
| 20260505172503 | 61 | 292 | 0.9 | 0.9 | 0.00 | 0.17 | 0.17 | 80 | 1010.7 |
| 20260505171003 | 65 | 292 | 0.0 | 0.0 | 0.00 | 0.17 | 0.17 | 78 | 1010.5 |
| 20260505165503 | 65 | 292 | 1.7 | 1.7 | 0.00 | 0.17 | 0.17 | 69 | 1010.5 |
| 20260505164003 | 62 | 292 | 0.0 | 0.0 | 0.00 | 0.17 | 0.17 | 76 | 1010.6 |
| 20260505162503 | 61 | 292 | 0.9 | 0.9 | 0.00 | 0.17 | 0.17 | 80 | 1010.5 |
| 20260505161003 | 61 | 315 | 2.6 | 3.5 | 0.00 | 0.17 | 0.17 | 80 | 1010.6 |
| 20260505152503 | 59 | 270 | 1.7 | 1.7 | 0.00 | 0.17 | 0.17 | 87 | 1010.9 |
| 20260505151003 | 58 | 292 | 3.5 | 4.3 | 0.00 | 0.17 | 0.17 | 89 | 1011.1 |